Weather History for Ashtabula, OH

Change the Weather History Date:

Wednesday, February 26, 2014

  Actual Average (KYNG) Record (KYNG)
Temperature  
Mean Temperature 13 °F 31 °F  
Max Temperature 18 °F 39 °F 73 °F (2000)
Min Temperature 8 °F 23 °F -8 °F (1963)
Degree Days  
Heating Degree Days 52 34  
Month to date heating degree days 957  
Since 1 July heating degree days 4580  
Cooling Degree Days 0 0  
Month to date cooling degree days 0  
Year to date cooling degree days 0  
Moisture  
Dew Point 1 °F    
Average Humidity 63    
Maximum Humidity 79    
Minimum Humidity 45    
Precipitation  
Precipitation 0.00 in 0.08 in 0.77 in (2013)
Month to date precipitation 1.98  
Year to date precipitation 4.53  
Snow  
Snow 0.00 in 0.50 in - ()
Month to date snowfall 11.9  
Since 1 July snowfall 47.9  
Snow Depth -    
Sea Level Pressure  
Sea Level Pressure 29.98 in    
Wind  
Wind Speed 11 mph (WNW)    
Max Wind Speed 17 mph    
Max Gust Speed 26 mph    
Visibility 6 miles    
Events Snow    
T = Trace of Precipitation, MM = Missing Value Source: NWS Daily Summary

Daily Weather History Graph

Daily Weather History Graph

Search for Another Location

Airport:

Trip Planner

Search our weather history database for the weather conditions in past years. The results will help you decide how hot, cold, wet, or windy it might be!

Date:

Astronomy

Feb. 26, 2014 Rise Set
Actual Time 7:02 AM EST 6:09 PM EST
Civil Twilight 6:34 AM EST 6:37 PM EST
Nautical Twilight 6:02 AM EST 7:09 PM EST
Astronomical Twilight 5:29 AM EST 7:42 PM EST
Moon 4:49 AM EST (2/26) 3:20 PM EST (2/26)
Length of Visible Light 12h 03m
Length of Day
11h 07m
Waning Crescent, 10% of the Moon is Illuminated
Feb 26
Waning Crescent
Mar 1
New
Mar 8
First Quarter
Mar 16
Full
Mar 23
Last Quarter

Hourly Weather History & Observations

Time (EST) Temp. Windchill Dew Point Humidity Pressure Visibility Wind Dir Wind Speed Gust Speed Precip Events Conditions
12:53 AM 18.0 °F 4.8 °F 9.0 °F 68% 29.97 in 6.0 mi West 12.7 mph - 0.00 in Snow Light Snow
1:09 AM 17.6 °F 4.3 °F 8.6 °F 68% 29.94 in 2.5 mi NW 12.7 mph 23.0 mph 0.00 in Snow Light Snow
1:15 AM 15.8 °F 2.7 °F 10.4 °F 79% 29.94 in 1.0 mi NW 11.5 mph 23.0 mph 0.00 in Snow Light Snow
1:21 AM 15.8 °F 2.1 °F 10.4 °F 79% 29.94 in 0.8 mi NW 12.7 mph 18.4 mph 0.00 in Snow Light Snow
1:34 AM 14.0 °F -2.5 °F 8.6 °F 79% 29.95 in 0.8 mi NNW 17.3 mph 26.5 mph 0.00 in Snow Light Snow
1:36 AM 14.0 °F -0.8 °F 8.6 °F 79% 29.95 in 1.0 mi NW 13.8 mph 26.5 mph 0.00 in Snow Light Snow
1:45 AM 12.2 °F -1.8 °F 6.8 °F 79% 29.95 in 1.5 mi NW 11.5 mph 23.0 mph 0.00 in Snow Light Snow
1:53 AM 14.0 °F 1.2 °F 6.1 °F 71% 30.00 in 1.8 mi NW 10.4 mph - 0.00 in Snow Light Snow
2:00 AM 14.0 °F -0.2 °F 6.8 °F 73% 29.96 in 2.0 mi NW 12.7 mph 18.4 mph 0.00 in Snow Light Snow
2:23 AM 12.2 °F -1.8 °F 1.4 °F 62% 29.96 in 4.0 mi NW 11.5 mph 19.6 mph 0.00 in Snow Light Snow
2:53 AM 12.0 °F -4.5 °F 1.0 °F 61% 30.01 in 4.0 mi NW 16.1 mph 21.9 mph 0.00 in Snow Light Snow
3:53 AM 12.0 °F 0.5 °F 1.0 °F 61% 30.01 in 6.0 mi NW 8.1 mph 17.3 mph 0.00 in Snow Light Snow
4:53 AM 10.9 °F 0.2 °F 1.0 °F 64% 30.01 in 10.0 mi NW 6.9 mph - 0.00 in   Overcast
5:53 AM 10.0 °F -0.9 °F 1.9 °F 70% 30.04 in 7.0 mi NNW 6.9 mph - 0.00 in Snow Light Snow
6:26 AM 8.6 °F 0.1 °F 1.4 °F 73% 30.00 in 10.0 mi NW 4.6 mph - 0.00 in   Overcast
6:53 AM 8.1 °F -2.0 °F 1.9 °F 76% 30.05 in 10.0 mi West 5.8 mph - 0.00 in   Overcast
7:50 AM 8.6 °F -7.0 °F 1.4 °F 73% 30.02 in 2.5 mi NNW 12.7 mph 19.6 mph 0.00 in Snow Light Snow
7:53 AM 9.0 °F -5.9 °F 1.0 °F 70% 30.08 in 2.5 mi NW 11.5 mph 19.6 mph 0.00 in Snow Light Snow
8:03 AM 8.6 °F -7.0 °F 1.4 °F 73% 30.03 in 1.0 mi NW 12.7 mph - 0.00 in Snow Light Snow
8:14 AM 8.6 °F -6.3 °F 1.4 °F 73% 30.04 in 2.0 mi NNW 11.5 mph 20.7 mph 0.00 in Snow Light Snow
8:24 AM 8.6 °F -3.7 °F 1.4 °F 73% 30.05 in 1.0 mi NW 8.1 mph - 0.00 in Snow Light Snow
8:34 AM 8.6 °F -7.7 °F -0.4 °F 67% 30.05 in 2.5 mi NW 13.8 mph 19.6 mph 0.00 in Snow Light Snow
8:41 AM 8.6 °F -4.7 °F 1.4 °F 73% 30.05 in 5.0 mi NNW 9.2 mph 19.6 mph 0.00 in Snow Light Snow
8:53 AM 8.1 °F -8.4 °F -0.9 °F 67% 30.12 in 7.0 mi NW 13.8 mph 20.7 mph 0.00 in Snow Light Snow
9:23 AM 8.6 °F -5.5 °F -7.6 °F 48% 30.07 in 10.0 mi NNW 10.4 mph 17.3 mph 0.00 in   Mostly Cloudy
9:53 AM 8.1 °F -5.3 °F -7.1 °F 50% 30.13 in 10.0 mi WNW 9.2 mph - 0.00 in   Partly Cloudy
10:53 AM 9.0 °F -5.9 °F -8.0 °F 46% 30.12 in 10.0 mi NW 11.5 mph 19.6 mph N/A   Clear
11:53 AM 10.0 °F -5.9 °F -5.1 °F 51% 30.10 in 10.0 mi West 13.8 mph - N/A   Partly Cloudy
12:53 PM 12.0 °F -2.0 °F -4.0 °F 49% 30.06 in 10.0 mi NW 11.5 mph - N/A   Overcast
1:53 PM 12.9 °F 1.6 °F -0.9 °F 54% 30.03 in 10.0 mi West 8.1 mph - N/A   Overcast
2:53 PM 12.9 °F -0.9 °F -2.0 °F 51% 30.00 in 10.0 mi WNW 11.5 mph 23.0 mph N/A   Overcast
3:53 PM 12.9 °F -0.9 °F -4.0 °F 47% 29.97 in 10.0 mi WSW 11.5 mph - N/A   Clear
4:53 PM 14.0 °F 1.2 °F -4.0 °F 45% 29.94 in 10.0 mi SW 10.4 mph - N/A   Partly Cloudy
5:53 PM 12.9 °F 2.6 °F -2.9 °F 49% 29.91 in 10.0 mi WSW 6.9 mph - N/A   Clear
6:53 PM 10.9 °F 2.9 °F -5.1 °F 49% 29.90 in 10.0 mi SW 4.6 mph - N/A   Partly Cloudy
7:53 PM 10.9 °F 4.7 °F -4.0 °F 51% 29.87 in 10.0 mi SSW 3.5 mph - N/A   Overcast
8:53 PM 10.9 °F 1.4 °F -0.9 °F 59% 29.83 in 10.0 mi SSW 5.8 mph - N/A   Overcast
9:53 PM 10.9 °F 0.2 °F -0.9 °F 59% 29.81 in 10.0 mi SSW 6.9 mph - N/A   Mostly Cloudy
10:53 PM 12.9 °F 0.7 °F -0.9 °F 54% 29.77 in 10.0 mi SSW 9.2 mph - N/A   Overcast
11:53 PM 12.9 °F -0.2 °F -0.0 °F 56% 29.73 in 10.0 mi SSW 10.4 mph 20.7 mph N/A   Mostly Cloudy